TimeCST,TemperatureF,Dew PointF,Humidity,Sea Level PressureIn,VisibilityMPH,Wind Direction,Wind SpeedMPH,Gust SpeedMPH,PrecipitationIn,Events,Conditions,WindDirDegrees,DateUTC
12:15 AM,17.6,11.3,76,30.00,10.0,West,5.8,-,N/A,,Overcast,260,2013-01-03 06:15:00
12:35 AM,17.6,11.3,76,29.99,7.0,West,3.5,-,N/A,Snow,Light Snow,270,2013-01-03 06:35:00
12:55 AM,17.6,11.5,77,30.00,7.0,West,4.6,-,N/A,,Overcast,270,2013-01-03 06:55:00
1:15 AM,17.4,11.8,79,30.00,7.0,West,5.8,-,N/A,,Overcast,280,2013-01-03 07:15:00
1:35 AM,17.2,11.7,79,29.99,7.0,West,4.6,-,N/A,Snow,Light Snow,270,2013-01-03 07:35:00
1:55 AM,17.2,11.3,78,30.00,10.0,WNW,3.5,-,N/A,,Overcast,290,2013-01-03 07:55:00
2:15 AM,17.1,11.3,78,30.00,10.0,WNW,5.8,-,N/A,,Overcast,290,2013-01-03 08:15:00
2:35 AM,16.9,11.3,79,30.01,7.0,West,4.6,-,N/A,,Overcast,280,2013-01-03 08:35:00
2:55 AM,16.7,11.3,79,30.00,7.0,West,5.8,-,N/A,,Overcast,260,2013-01-03 08:55:00
3:15 AM,16.5,11.5,81,29.99,7.0,WSW,5.8,-,N/A,,Overcast,250,2013-01-03 09:15:00
3:35 AM,16.5,11.5,81,30.00,7.0,West,9.2,-,N/A,,Overcast,280,2013-01-03 09:35:00
3:55 AM,16.5,11.3,80,30.01,7.0,WNW,6.9,-,N/A,,Overcast,290,2013-01-03 09:55:00
4:15 AM,16.2,10.9,80,30.00,7.0,West,10.4,-,N/A,,Overcast,280,2013-01-03 10:15:00
4:35 AM,15.8,10.6,80,30.01,7.0,WNW,8.1,-,N/A,,Overcast,290,2013-01-03 10:35:00
4:55 AM,15.6,10.0,79,30.02,7.0,WNW,6.9,-,N/A,,Overcast,290,2013-01-03 10:55:00
5:15 AM,15.6,10.0,79,30.02,7.0,WNW,5.8,-,N/A,,Overcast,290,2013-01-03 11:15:00
5:35 AM,15.4,10.0,79,30.03,7.0,WNW,4.6,-,N/A,,Overcast,290,2013-01-03 11:35:00
5:55 AM,15.4,10.2,80,30.04,7.0,WNW,6.9,-,N/A,,Overcast,300,2013-01-03 11:55:00
6:15 AM,15.4,10.4,80,30.04,7.0,WNW,4.6,-,N/A,,Overcast,290,2013-01-03 12:15:00
6:35 AM,15.4,10.8,82,30.05,7.0,WNW,5.8,-,N/A,,Overcast,290,2013-01-03 12:35:00
6:55 AM,15.4,11.1,83,30.06,5.0,WNW,4.6,-,N/A,,Overcast,290,2013-01-03 12:55:00
7:15 AM,15.4,11.3,84,30.06,5.0,WNW,4.6,-,N/A,Snow,Light Snow,300,2013-01-03 13:15:00
7:35 AM,15.6,11.7,84,30.07,4.0,WNW,5.8,-,N/A,,Overcast,290,2013-01-03 13:35:00
7:55 AM,15.6,11.8,85,30.07,4.0,WNW,5.8,-,N/A,Snow,Light Snow,290,2013-01-03 13:55:00
8:15 AM,15.8,12.0,85,30.08,3.0,West,4.6,-,N/A,Snow,Light Snow,280,2013-01-03 14:15:00
8:35 AM,16.2,12.2,84,30.09,3.0,West,5.8,-,N/A,Snow,Light Snow,270,2013-01-03 14:35:00
8:55 AM,16.5,12.6,84,30.09,3.0,West,4.6,-,N/A,Snow,Light Snow,280,2013-01-03 14:55:00
9:15 AM,16.7,12.7,84,30.10,4.0,West,5.8,-,N/A,Snow,Light Snow,280,2013-01-03 15:15:00
9:35 AM,17.4,13.1,83,30.11,4.0,West,8.1,-,N/A,,Overcast,280,2013-01-03 15:35:00
9:55 AM,17.6,13.1,83,30.12,3.0,West,4.6,-,N/A,Snow,Light Snow,280,2013-01-03 15:55:00
10:15 AM,18.1,13.1,81,30.12,4.0,WNW,5.8,-,N/A,,Haze,290,2013-01-03 16:15:00
10:35 AM,18.9,13.8,81,30.12,4.0,WNW,6.9,-,N/A,Snow,Light Snow,290,2013-01-03 16:35:00
10:55 AM,19.4,14.2,80,30.12,4.0,WNW,6.9,-,N/A,Snow,Light Snow,290,2013-01-03 16:55:00
11:15 AM,19.9,14.9,81,30.11,4.0,West,9.2,-,N/A,Snow,Light Snow,270,2013-01-03 17:15:00
11:35 AM,20.1,15.3,81,30.11,4.0,NW,9.2,-,N/A,,Haze,310,2013-01-03 17:35:00
11:55 AM,20.1,14.9,80,30.10,4.0,NW,9.2,17.3,N/A,,Haze,310,2013-01-03 17:55:00
12:15 PM,20.1,15.1,81,30.10,5.0,West,8.1,-,N/A,,Haze,280,2013-01-03 18:15:00
12:35 PM,20.1,15.4,82,30.10,5.0,WNW,8.1,-,N/A,,Haze,290,2013-01-03 18:35:00
12:55 PM,19.9,15.1,81,30.10,5.0,WNW,10.4,19.6,N/A,,Haze,290,2013-01-03 18:55:00
1:15 PM,19.9,15.3,82,30.10,5.0,West,8.1,-,N/A,,Haze,280,2013-01-03 19:15:00
1:35 PM,20.1,15.1,81,30.10,5.0,West,10.4,16.1,N/A,,Haze,280,2013-01-03 19:35:00
1:55 PM,20.3,14.9,80,30.11,7.0,West,8.1,-,N/A,,Overcast,280,2013-01-03 19:55:00
2:15 PM,20.3,14.9,80,30.11,7.0,West,8.1,18.4,N/A,,Overcast,280,2013-01-03 20:15:00
2:35 PM,20.1,14.9,80,30.11,7.0,West,9.2,16.1,N/A,,Overcast,280,2013-01-03 20:35:00
2:55 PM,20.1,14.9,80,30.11,7.0,West,6.9,-,N/A,,Overcast,270,2013-01-03 20:55:00
3:15 PM,19.9,15.3,82,30.12,7.0,West,10.4,18.4,N/A,,Overcast,260,2013-01-03 21:15:00
3:35 PM,19.4,14.4,81,30.12,7.0,West,10.4,21.9,N/A,,Overcast,280,2013-01-03 21:35:00
3:55 PM,19.4,14.4,81,30.13,7.0,West,12.7,17.3,N/A,,Overcast,260,2013-01-03 21:55:00
4:15 PM,18.5,13.6,81,30.13,7.0,West,11.5,-,N/A,,Overcast,260,2013-01-03 22:15:00
4:52 PM,17.6,12.2,79,30.13,7.0,West,6.9,-,N/A,,Overcast,270,2013-01-03 22:52:00
5:15 PM,16.7,12.2,82,30.13,7.0,West,13.8,17.3,N/A,,Overcast,260,2013-01-03 23:15:00
5:35 PM,16.5,11.8,82,30.14,10.0,West,11.5,19.6,N/A,,Overcast,260,2013-01-03 23:35:00
5:55 PM,16.3,11.7,82,30.14,7.0,West,9.2,18.4,N/A,,Overcast,280,2013-01-03 23:55:00
6:15 PM,16.3,11.8,82,30.14,7.0,West,10.4,-,N/A,,Overcast,270,2013-01-04 00:15:00
6:35 PM,15.8,11.1,82,30.13,10.0,WSW,9.2,17.3,N/A,,Overcast,250,2013-01-04 00:35:00
6:55 PM,15.4,10.4,80,30.13,10.0,WSW,9.2,-,N/A,,Overcast,250,2013-01-04 00:55:00
7:15 PM,14.9,10.2,82,30.13,10.0,WSW,9.2,-,N/A,,Overcast,250,2013-01-04 01:15:00
7:35 PM,14.4,9.7,82,30.13,10.0,WSW,8.1,-,N/A,,Mostly Cloudy,250,2013-01-04 01:35:00
7:55 PM,13.6,9.1,82,30.13,10.0,West,8.1,17.3,N/A,,Overcast,260,2013-01-04 01:55:00
8:15 PM,12.9,8.6,83,30.12,10.0,WSW,9.2,-,N/A,,Mostly Cloudy,250,2013-01-04 02:15:00
8:35 PM,12.2,7.7,82,30.11,10.0,West,10.4,-,N/A,,Clear,260,2013-01-04 02:35:00
8:55 PM,11.7,6.8,81,30.11,10.0,West,12.7,21.9,N/A,,Clear,260,2013-01-04 02:55:00
9:15 PM,11.1,5.9,80,30.10,10.0,WSW,10.4,17.3,N/A,,Clear,240,2013-01-04 03:15:00
9:35 PM,10.6,5.2,79,30.09,10.0,WSW,8.1,-,N/A,,Clear,250,2013-01-04 03:35:00
9:55 PM,10.2,5.0,79,30.10,10.0,WSW,8.1,-,N/A,,Clear,240,2013-01-04 03:55:00
10:15 PM,9.5,4.8,81,30.10,10.0,WSW,10.4,17.3,N/A,,Clear,240,2013-01-04 04:15:00
10:35 PM,8.6,3.9,81,30.10,10.0,WSW,9.2,17.3,N/A,,Clear,250,2013-01-04 04:35:00
10:55 PM,8.1,3.0,80,30.09,10.0,WSW,10.4,16.1,N/A,,Clear,240,2013-01-04 04:55:00
11:15 PM,7.7,2.8,81,30.08,10.0,WSW,10.4,17.3,N/A,,Clear,240,2013-01-04 05:15:00
11:35 PM,7.5,3.0,82,30.07,10.0,WSW,13.8,19.6,N/A,,Clear,240,2013-01-04 05:35:00
11:55 PM,7.3,3.2,83,30.06,10.0,WSW,11.5,-,N/A,,Clear,250,2013-01-04 05:55:00